Zurück zum Katalog

CZ-6A DEB

AktivSSO
NORAD 55862·DEBRIS·🇨🇳 China

Gestartet Nov 11, 2022 von Taiyuan Satellite Launch Center

Loading…

Nächste Überflüge (nächste 24 Stunden)

TLE

AktuellSource: Space-Track

Epoche: Sep 14, 2026, 00:05 UTC

1 55862U 22151ZJ  26257.00352989  .00001580  00000-0  63314-3 0  9999
2 55862  98.7460 281.4677 0003884 121.8794 238.2766 14.29736549193065

Verfolge CZ-6A DEB in Echtzeit mit AllMySat

Download on the App Store